EW4115 Weather Reports


Display with metric or nautical units.
time (UTC)temp
F
wind
direction
speed
MPH
gust
MPH
rain 1hr
in
rain 24hr
in
rain mn
in
humidity
%
barometer
mb
20260503024536 47 318 0.0 1.0 0.01 0.05 0.03 83 1015.3
20260503023036 47 318 0.0 1.0 0.01 0.05 0.03 81 1015.5
20260503021534 47 321 0.0 5.0 0.01 0.05 0.03 80 1015.6
20260503020034 48 293 4.0 14.0 0.00 0.04 0.02 79 1015.4
20260503014532 48 326 3.0 11.0 0.00 0.04 0.02 79 1015.4
20260503013031 48 289 0.0 8.0 0.00 0.04 0.02 78 1015.4
20260503011533 47 333 3.0 8.0 0.00 0.04 0.02 78 1015.4
20260503010034 47 308 0.0 6.0 0.00 0.04 0.02 80 1015.5
20260503004529 47 259 2.0 6.0 0.00 0.04 0.02 80 1015.3
20260503003028 47 255 2.0 9.0 0.00 0.04 0.02 81 1015.4
20260503001524 46 263 2.0 6.0 0.00 0.04 0.02 82 1015.5
20260503000022 46 245 1.0 8.0 0.00 0.04 0.02 83 1015.6
20260502234525 47 285 4.0 11.0 0.00 0.04 0.02 82 1015.8
20260502233017 47 277 0.0 7.0 0.02 0.04 0.02 83 1016.2
20260502231517 48 319 0.0 0.0 0.02 0.04 0.02 83 1016.3
20260502230014 48 319 0.0 4.0 0.02 0.04 0.02 81 1016.3
20260502224512 48 335 0.0 10.0 0.02 0.04 0.02 79 1016.5
20260502223009 50 326 1.0 5.0 0.00 0.02 0.00 74 1017.0
20260502221506 50 287 1.0 15.0 0.00 0.02 0.00 71 1016.5
20260502220003 50 76 0.0 2.0 0.00 0.02 0.00 64 1016.5
20260502214601 49 330 0.0 3.0 0.00 0.02 0.00 66 1016.7
20260502213108 48 292 0.0 1.0 0.00 0.02 0.00 66 1016.8
20260502211558 48 292 0.0 1.0 0.00 0.02 0.00 65 1016.7
20260502210054 49 292 0.0 0.0 0.00 0.02 0.00 64 1016.7
20260502204602 49 292 0.0 1.0 0.00 0.02 0.02 63 1016.8
20260502203053 49 292 0.0 1.0 0.00 0.02 0.02 63 1016.9
20260502201552 49 292 0.0 1.0 0.00 0.02 0.02 63 1017.0
20260502200050 49 292 0.0 1.0 0.00 0.02 0.02 61 1017.1
20260502194548 50 292 0.0 1.0 0.00 0.02 0.02 59 1017.1
20260502193051 50 292 0.0 1.0 0.00 0.02 0.02 59 1017.0
20260502191549 51 292 0.0 1.0 0.00 0.02 0.02 56 1017.0
20260502190046 51 292 0.0 1.0 0.00 0.02 0.02 53 1017.0
20260502184555 51 291 0.0 2.0 0.00 0.02 0.02 52 1016.9
20260502183046 52 292 0.0 2.0 0.00 0.02 0.02 52 1016.9
20260502181546 52 291 0.0 3.0 0.00 0.02 0.02 52 1016.7
20260502163039 54 360 4.0 13.0 0.00 0.02 0.02 47 1016.5
20260502161538 54 19 5.0 11.0 0.00 0.02 0.02 45 1016.6
20260502151533 54 333 6.0 15.0 0.00 0.02 0.02 47 1016.9
20260502123024 55 355 7.0 17.0 0.00 0.02 0.02 47 1017.4
20260502121536 56 345 6.0 13.0 0.00 0.02 0.02 47 1017.3
20260502114521 55 10 8.0 21.0 0.00 0.02 0.02 47 1017.5
20260502113020 56 6 5.0 15.0 0.00 0.02 0.02 48 1017.4
20260502111517 54 350 2.0 11.0 0.00 0.02 0.02 55 1017.4
20260502110019 54 326 4.0 12.0 0.00 0.02 0.02 56 1017.8
20260502104516 55 38 5.0 17.0 0.00 0.02 0.02 55 1017.7
20260502103020 54 334 3.0 13.0 0.00 0.02 0.02 57 1017.9
20260502101515 54 326 5.0 18.0 0.00 0.02 0.02 59 1018.1
20260502091510 53 19 6.0 17.0 0.00 0.02 0.02 60 1018.0
20260502070059 55 340 8.0 18.0 0.00 0.02 0.02 57 1017.7
20260502064602 54 10 4.0 17.0 0.00 0.02 0.02 59 1017.6
20260502063059 55 350 6.0 14.0 0.00 0.02 0.02 58 1017.7
20260502061554 54 48 4.0 15.0 0.00 0.02 0.02 60 1017.7
20260502060050 53 58 8.0 18.0 0.00 0.02 0.02 61 1017.7
20260502054548 53 46 5.0 16.0 0.00 0.02 0.02 64 1017.5
20260502053046 52 333 2.0 12.0 0.00 0.02 0.02 68 1017.7
20260502051544 52 324 4.0 12.0 0.00 0.02 0.02 70 1017.7
20260502050046 51 341 4.0 14.0 0.00 0.02 0.02 71 1017.7
20260502044539 51 286 2.0 9.0 0.00 0.02 0.02 74 1017.8
20260502043038 51 360 3.0 9.0 0.00 0.02 0.02 76 1017.7
20260502041534 51 14 2.0 10.0 0.02 0.02 0.02 77 1017.7
20260502040032 50 337 3.0 11.0 0.02 0.02 0.02 80 1017.8
20260502034530 50 332 2.0 8.0 0.02 0.02 0.02 81 1017.7
20260502033039 50 335 1.0 10.0 0.02 0.02 0.02 79 1017.4
20260502031524 51 345 2.0 11.0 0.00 0.01 0.00 76 1017.4
20260502030024 52 355 1.0 9.0 0.00 0.01 0.00 75 1017.4